Weather in Meru

Kenya     0°02′33″N   37°39′12″E
temp.,
°C
wind,
m/s
gust,
m/s
humid.,
%
clouds,
%
prec.,
mm/h
press.,
hPa
HPBL,
m
10 august, wed
wed1000:00+19s3859100 0.0 1016755
03:00+17sse41065100 0.0 1016837
06:00+15s296666 0.0 1017364
09:00+21sse584998 0.0 10171032
12:00+26se5637100 0.0 10141755
15:00+26se6638100 0.0 10112011
18:00+24se5745100 0.0 10121645
21:00+19sse4867100 0.0 10161323
11 august, thu
thu1100:00+18se4876100 0.0 1017995
03:00+17se4875100 0.1 1016827
06:00+14sse248688 0.0 1017127
09:00+20sse6950100 0.0 10171073
12:00+25sse673998 0.0 10151782
15:00+27sse5635100 0.0 10112260
18:00+23sse5747100 0.0 10131226
21:00+20se4763100 0.0 10151084
12 august, fri
fri1200:00+17se3782100 0.1 1017740
03:00+16se3793100 0.9 1016689
06:00+15sse388699 0.3 1018795
09:00+16sse4979100 0.3 1019907
12:00+23sse574853 0.0 10161417
15:00+27sse553794 0.0 10112111
18:00+23sse3645100 0.0 10121142
21:00+17s276647 0.0 1016210
13 august, sat
sat1300:00+17sse287197 0.0 1017442
03:00+16sse267672 0.0 1015273
06:00+13ssw118530 0.0 101735
09:00+20sse46539 0.0 1017971
12:00+26sse553770 0.0 10141882
15:00+26s4534100 0.0 10102101
18:00+23ssw1243100 0.0 101160
21:00+21sse375183 0.1 1014768
14 august, sun
sun1400:00+18se256369 0.0 1016368
03:00+15sw127889 0.0 101558
06:00+14wsw118582 0.0 101629
09:00+21se345412 0.0 1016861
12:00+26se4339100 0.1 10131681
15:00+25ssw3345100 0.6 10101200
18:00+21wsw4767100 1.1 1011284
21:00+20w1170100 2.3 101322